Vertical_Velocity
0 1 -1 1 -2 2 2 4 -1 1 -5 -2 -0 1 2 -0 -3 1 5 3 -1 2 -1 -3 4 -3 -1
3 1 0 1 -2 3 -1 2 0 -0 0 -1 -3 0 -0 -0 -1 -3 1 1 1 1 -6 -1 -5 -5 -2
4 1 5 -0 5 1 1 -2 -1 -2 1 1 -1 1 -0 -0 -1 -0 0 1 1 -3 -2 -1 -6 -3 1
0 2 3 0 2 -0 3 2 -6 4 -2 0 -4 -1 0 0 2 1 6 -0 -3 -5 -4 1 -3 -1 2
-7 0 2 -2 6 6 -2 -8 1 0 6 0 -3 -3 -2 -1 0 2 1 -2 -1 -3 1 -0 -2 -3 1
-3 -1 11 -3 -4 1 -8 0 -4 2 3 -4 -1 0 -1 2 3 -2 2 -3 -1 -2 -3 1 -2 -3 2
10 6 9 9 8 -7 4 5 -1 -4 -2 -0 2 0 -0 -2 4 -1 2 -2 -0 -2 -3 0 1 1 2
3 -9 -3 -1 -2 -2 0 -7 1 -7 -2 2 -1 -0 2 -8 -4 0 1 -1 1 -2 -2 -2 1 -6 -1
-3 9 -1 -6 -4 3 -3 -0 3 2 -3 6 -1 -2 -1 -1 -1 -1 0 2 -1 -2 -1 -1 -1 -1 2
-3 -2 -5 -8 -5 -2 -1 -1 -2 -0 -4 3 -1 -4 -5 3 -3 2 3 2 1 -3 -4 1 1 -1 4
1 4 0 -2 2 -1 -2 7 2 0 -2 1 -1 -4 -4 -2 -2 2 -1 2 -3 -0 -4 -6 2 -0 6
-0 -4 -2 -7 1 -5 1 -1 1 -2 -3 4 -3 -2 -2 -2 -2 3 -0 -2 -4 -0 3 -0 -4 -4 3
-4 0 3 8 -0 -0 1 -2 1 -1 1 3 -3 -5 2 -2 -6 7 3 -3 -3 -4 2 2 1 5 -4
6 -7 2 -7 -1 2 -3 1 2 2 1 -4 -2 1 -1 -1 -2 1 0 -1 -1 2 1 -1 1 -2 -4
4 -4 -4 -2 4 -5 -1 -1 -3 3 -1 -2 3 -4 -1 -1 -2 4 3 -1 1 4 -4 1 0 -4 -7
2 6 -4 1 -1 -7 -0 -1 6 -7 -1 2 0 -0 -4 1 -2 1 -2 1 1 3 -4 1 -4 -6 -3
-0 1 0 4 -12 -4 -1 1 6 -11 -5 1 2 -2 -2 2 -1 -1 -1 5 -1 0 -3 -3 -1 -8 -3
Height
3132 3136 3139 3142 3145 3147 3150 3153 3154 3156 3157 3158 3157 3156 3155 3153 3151 3150 3148 3142 3139 3134 3128 3123 3115 3107 3100
3125 3128 3132 3135 3139 3141 3145 3147 3149 3151 3152 3152 3153 3152 3151 3149 3148 3145 3142 3138 3134 3129 3124 3118 3110 3102 3094
3116 3120 3125 3128 3132 3135 3138 3141 3143 3147 3146 3148 3148 3147 3146 3144 3143 3140 3137 3132 3129 3125 3119 3112 3105 3097 3089
3106 3111 3117 3120 3124 3128 3132 3134 3138 3141 3142 3143 3144 3143 3141 3140 3139 3135 3132 3127 3123 3120 3115 3107 3100 3092 3085
3096 3103 3108 3113 3118 3121 3124 3127 3132 3135 3135 3137 3138 3138 3137 3136 3133 3130 3125 3122 3119 3115 3110 3103 3095 3088 3083
3088 3093 3099 3105 3111 3113 3117 3121 3125 3129 3130 3131 3133 3133 3132 3130 3128 3124 3120 3118 3114 3110 3105 3100 3092 3086 3080
3079 3085 3090 3097 3101 3108 3111 3115 3118 3122 3124 3125 3128 3128 3126 3125 3122 3119 3115 3112 3108 3105 3101 3096 3090 3084 3076
3071 3075 3079 3087 3095 3102 3104 3109 3110 3114 3117 3121 3121 3121 3120 3118 3117 3115 3111 3108 3104 3100 3097 3093 3088 3081 3073
3060 3066 3070 3077 3087 3093 3096 3101 3104 3108 3112 3113 3114 3116 3115 3112 3112 3110 3107 3104 3100 3096 3093 3090 3084 3077 3070
3052 3058 3064 3072 3080 3087 3090 3094 3098 3101 3105 3108 3107 3110 3110 3109 3108 3107 3103 3100 3097 3093 3088 3085 3080 3074 3067
3042 3049 3056 3065 3072 3078 3084 3088 3091 3095 3098 3100 3101 3104 3103 3104 3103 3102 3100 3096 3093 3091 3087 3081 3076 3070 3065
3032 3040 3048 3059 3065 3071 3076 3081 3084 3089 3092 3094 3095 3098 3098 3099 3099 3097 3096 3094 3091 3090 3087 3080 3073 3068 3063
3023 3033 3042 3051 3058 3063 3068 3073 3079 3082 3085 3088 3089 3092 3092 3093 3094 3094 3092 3090 3088 3085 3083 3078 3074 3070 3065
3016 3025 3035 3042 3050 3055 3062 3067 3070 3075 3078 3082 3083 3086 3087 3088 3090 3091 3089 3087 3086 3081 3078 3074 3071 3065 3060
3004 3015 3025 3034 3041 3048 3055 3059 3063 3068 3072 3076 3077 3079 3081 3083 3084 3086 3085 3085 3083 3080 3075 3072 3068 3064 3059
2997 3007 3017 3026 3034 3042 3048 3053 3056 3060 3065 3070 3071 3074 3076 3078 3081 3081 3081 3081 3080 3078 3075 3071 3066 3062 3057
2990 3000 3010 3017 3025 3034 3040 3046 3049 3053 3060 3063 3065 3068 3070 3073 3076 3076 3077 3077 3077 3075 3074 3070 3065 3061 3055